datetime,total release
1955-01-01,13.0
1955-01-02,14.0
1955-01-03,14.0
1955-01-04,14.0
1955-01-05,15.0
1955-01-06,15.0
1955-01-07,15.0
1955-01-08,14.0
1955-01-09,14.0
1955-01-10,14.0
1955-01-11,14.0
1955-01-12,14.0
1955-01-13,14.0
1955-01-14,15.0
1955-01-15,14.0
1955-01-16,15.0
1955-01-17,14.0
1955-01-18,14.0
1955-01-19,14.0
1955-01-20,14.0
1955-01-21,14.0
1955-01-22,14.0
1955-01-23,14.0
1955-01-24,15.0
1955-01-25,15.0
1955-01-26,14.0
1955-01-27,14.0
1955-01-28,14.0
1955-01-29,14.0
1955-01-30,14.0
1955-01-31,14.0
1955-02-01,14.0
1955-02-02,14.0
1955-02-03,14.0
1955-02-04,14.0
1955-02-05,13.0
1955-02-06,13.0
1955-02-07,13.0
1955-02-08,14.0
1955-02-09,14.0
1955-02-10,15.0
1955-02-11,14.0
1955-02-12,14.0
1955-02-13,14.0
1955-02-14,15.0
1955-02-15,15.0
1955-02-16,15.0
1955-02-17,15.0
1955-02-18,15.0
1955-02-19,14.0
1955-02-20,13.0
1955-02-21,11.0
1955-02-22,12.0
1955-02-23,13.0
1955-02-24,14.0
1955-02-25,15.0
1955-02-26,15.0
1955-02-27,16.0
1955-02-28,16.0
1955-03-01,14.0
1955-03-02,15.0
1955-03-03,15.0
1955-03-04,15.0
1955-03-05,16.0
1955-03-06,16.0
1955-03-07,15.0
1955-03-08,16.0
1955-03-09,17.0
1955-03-10,17.0
1955-03-11,17.0
1955-03-12,18.0
1955-03-13,19.0
1955-03-14,18.0
1955-03-15,17.0
1955-03-16,17.0
1955-03-17,17.0
1955-03-18,18.0
1955-03-19,19.0
1955-03-20,19.0
1955-03-21,18.0
1955-03-22,17.0
1955-03-23,18.0
1955-03-24,19.0
1955-03-25,20.0
1955-03-26,19.0
1955-03-27,18.0
1955-03-28,19.0
1955-03-29,20.0
1955-03-30,20.0
1955-03-31,21.0
1955-04-01,20.0
1955-04-02,21.0
1955-04-03,19.0
1955-04-04,17.0
1955-04-05,18.0
1955-04-06,19.0
1955-04-07,19.0
1955-04-08,19.0
1955-04-09,20.0
1955-04-10,21.0
1955-04-11,22.0
1955-04-12,21.0
1955-04-13,21.0
1955-04-14,24.0
1955-04-15,28.0
1955-04-16,30.0
1955-04-17,31.0
1955-04-18,32.0
1955-04-19,32.0
1955-04-20,30.0
1955-04-21,35.0
1955-04-22,45.0
1955-04-23,45.0
1955-04-24,40.0
1955-04-25,50.0
1955-04-26,60.0
1955-04-27,75.0
1955-04-28,69.0
1955-04-29,79.0
1955-04-30,86.0
1955-05-01,119.0
1955-05-02,102.0
1955-05-03,66.0
1955-05-04,69.0
1955-05-05,84.0
1955-05-06,100.0
1955-05-07,126.0
1955-05-08,137.0
1955-05-09,122.0
1955-05-10,121.0
1955-05-11,128.0
1955-05-12,148.0
1955-05-13,193.0
1955-05-14,256.0
1955-05-15,250.0
1955-05-16,188.0
1955-05-17,144.0
1955-05-18,131.0
1955-05-19,108.0
1955-05-20,121.0
1955-05-21,158.0
1955-05-22,184.0
1955-05-23,160.0
1955-05-24,193.0
1955-05-25,221.0
1955-05-26,199.0
1955-05-27,150.0
1955-05-28,124.0
1955-05-29,140.0
1955-05-30,199.0
1955-05-31,219.0
1955-06-01,193.0
1955-06-02,173.0
1955-06-03,186.0
1955-06-04,179.0
1955-06-05,140.0
1955-06-06,208.0
1955-06-07,372.0
1955-06-08,514.0
1955-06-09,493.0
1955-06-10,440.0
1955-06-11,434.0
1955-06-12,392.0
1955-06-13,364.0
1955-06-14,318.0
1955-06-15,364.0
1955-06-16,272.0
1955-06-17,283.0
1955-06-18,294.0
1955-06-19,281.0
1955-06-20,285.0
1955-06-21,292.0
1955-06-22,338.0
1955-06-23,272.0
1955-06-24,250.0
1955-06-25,223.0
1955-06-26,221.0
1955-06-27,201.0
1955-06-28,190.0
1955-06-29,179.0
1955-06-30,175.0
1955-07-01,171.0
1955-07-02,150.0
1955-07-03,142.0
1955-07-04,131.0
1955-07-05,128.0
1955-07-06,121.0
1955-07-07,108.0
1955-07-08,97.0
1955-07-09,91.0
1955-07-10,88.0
1955-07-11,98.0
1955-07-12,88.0
1955-07-13,73.0
1955-07-14,71.0
1955-07-15,62.0
1955-07-16,60.0
1955-07-17,58.0
1955-07-18,52.0
1955-07-19,79.0
1955-07-20,82.0
1955-07-21,71.0
1955-07-22,66.0
1955-07-23,63.0
1955-07-24,106.0
1955-07-25,105.0
1955-07-26,95.0
1955-07-27,95.0
1955-07-28,79.0
1955-07-29,72.0
1955-07-30,70.0
1955-07-31,71.0
1955-08-01,74.0
1955-08-02,78.0
1955-08-03,94.0
1955-08-04,203.0
1955-08-05,131.0
1955-08-06,106.0
1955-08-07,94.0
1955-08-08,113.0
1955-08-09,89.0
1955-08-10,77.0
1955-08-11,71.0
1955-08-12,65.0
1955-08-13,71.0
1955-08-14,86.0
1955-08-15,56.0
1955-08-16,70.0
1955-08-17,62.0
1955-08-18,53.0
1955-08-19,57.0
1955-08-20,49.0
1955-08-21,45.0
1955-08-22,43.0
1955-08-23,40.0
1955-08-24,53.0
1955-08-25,57.0
1955-08-26,47.0
1955-08-27,64.0
1955-08-28,51.0
1955-08-29,43.0
1955-08-30,40.0
1955-08-31,38.0
1955-09-01,35.0
1955-09-02,33.0
1955-09-03,32.0
1955-09-04,31.0
1955-09-05,30.0
1955-09-06,28.0
1955-09-07,27.0
1955-09-08,26.0
1955-09-09,25.0
1955-09-10,24.0
1955-09-11,24.0
1955-09-12,22.0
1955-09-13,22.0
1955-09-14,22.0
1955-09-15,20.0
1955-09-16,20.0
1955-09-17,21.0
1955-09-18,20.0
1955-09-19,22.0
1955-09-20,22.0
1955-09-21,20.0
1955-09-22,18.0
1955-09-23,18.0
1955-09-24,18.0
1955-09-25,20.0
1955-09-26,19.0
1955-09-27,18.0
1955-09-28,17.0
1955-09-29,16.0
1955-09-30,16.0
1955-10-01,16.0
1955-10-02,16.0
1955-10-03,16.0
1955-10-04,15.0
1955-10-05,13.0
1955-10-06,13.0
1955-10-07,13.0
1955-10-08,13.0
1955-10-09,13.0
1955-10-10,13.0
1955-10-11,13.0
1955-10-12,14.0
1955-10-13,14.0
1955-10-14,14.0
1955-10-15,14.0
1955-10-16,14.0
1955-10-17,14.0
1955-10-18,14.0
1955-10-19,14.0
1955-10-20,14.0
1955-10-21,14.0
1955-10-22,14.0
1955-10-23,14.0
1955-10-24,14.0
1955-10-25,14.0
1955-10-26,14.0
1955-10-27,14.0
1955-10-28,14.0
1955-10-29,14.0
1955-10-30,14.0
1955-10-31,14.0
1955-11-01,14.0
1955-11-02,14.0
1955-11-03,14.0
1955-11-04,14.0
1955-11-05,14.0
1955-11-06,14.0
1955-11-07,15.0
1955-11-08,13.0
1955-11-09,18.0
1955-11-10,16.0
1955-11-11,15.0
1955-11-12,14.0
1955-11-13,14.0
1955-11-14,12.0
1955-11-15,12.0
1955-11-16,13.0
1955-11-17,13.0
1955-11-18,13.0
1955-11-19,13.0
1955-11-20,13.0
1955-11-21,13.0
1955-11-22,13.0
1955-11-23,13.0
1955-11-24,13.0
1955-11-25,13.0
1955-11-26,13.0
1955-11-27,13.0
1955-11-28,13.0
1955-11-29,13.0
1955-11-30,13.0
1955-12-01,13.0
1955-12-02,13.0
1955-12-03,13.0
1955-12-04,13.0
1955-12-05,13.0
1955-12-06,13.0
1955-12-07,13.0
1955-12-08,13.0
1955-12-09,13.0
1955-12-10,13.0
1955-12-11,13.0
1955-12-12,13.0
1955-12-13,13.0
1955-12-14,13.0
1955-12-15,13.0
1955-12-16,13.0
1955-12-17,13.0
1955-12-18,13.0
1955-12-19,13.0
1955-12-20,13.0
1955-12-21,13.0
1955-12-22,13.0
1955-12-23,13.0
1955-12-24,13.0
1955-12-25,13.0
1955-12-26,13.0
1955-12-27,13.0
1955-12-28,13.0
1955-12-29,13.0
1955-12-30,13.0
1955-12-31,13.0
1956-01-01,12.0
1956-01-02,12.0
1956-01-03,12.0
1956-01-04,12.0
1956-01-05,12.0
1956-01-06,12.0
1956-01-07,12.0
1956-01-08,12.0
1956-01-09,12.0
1956-01-10,12.0
1956-01-11,12.0
1956-01-12,12.0
1956-01-13,12.0
1956-01-14,12.0
1956-01-15,12.0
1956-01-16,12.0
1956-01-17,12.0
1956-01-18,12.0
1956-01-19,12.0
1956-01-20,12.0
1956-01-21,12.0
1956-01-22,12.0
1956-01-23,12.0
1956-01-24,12.0
1956-01-25,12.0
1956-01-26,12.0
1956-01-27,12.0
1956-01-28,12.0
1956-01-29,12.0
1956-01-30,12.0
1956-01-31,12.0
1956-02-01,11.0
1956-02-02,11.0
1956-02-03,11.0
1956-02-04,11.0
1956-02-05,11.0
1956-02-06,11.0
1956-02-07,11.0
1956-02-08,11.0
1956-02-09,11.0
1956-02-10,11.0
1956-02-11,11.0
1956-02-12,11.0
1956-02-13,11.0
1956-02-14,11.0
1956-02-15,11.0
1956-02-16,11.0
1956-02-17,11.0
1956-02-18,11.0
1956-02-19,11.0
1956-02-20,11.0
1956-02-21,11.0
1956-02-22,11.0
1956-02-23,11.0
1956-02-24,11.0
1956-02-25,11.0
1956-02-26,11.0
1956-02-27,11.0
1956-02-28,11.0
1956-02-29,11.0
1956-03-01,13.0
1956-03-02,13.0
1956-03-03,13.0
1956-03-04,13.0
1956-03-05,13.0
1956-03-06,13.0
1956-03-07,13.0
1956-03-08,13.0
1956-03-09,13.0
1956-03-10,13.0
1956-03-11,13.0
1956-03-12,13.0
1956-03-13,13.0
1956-03-14,13.0
1956-03-15,13.0
1956-03-16,13.0
1956-03-17,13.0
1956-03-18,13.0
1956-03-19,13.0
1956-03-20,13.0
1956-03-21,30.0
1956-03-22,30.0
1956-03-23,30.0
1956-03-24,30.0
1956-03-25,30.0
1956-03-26,30.0
1956-03-27,30.0
1956-03-28,30.0
1956-03-29,30.0
1956-03-30,30.0
1956-03-31,30.0
1956-04-01,30.0
1956-04-02,30.0
1956-04-03,30.0
1956-04-04,30.0
1956-04-05,30.0
1956-04-06,30.0
1956-04-07,30.0
1956-04-08,30.0
1956-04-09,30.0
1956-04-10,30.0
1956-04-11,30.0
1956-04-12,30.0
1956-04-13,30.0
1956-04-14,30.0
1956-04-15,30.0
1956-04-16,30.0
1956-04-17,30.0
1956-04-18,30.0
1956-04-19,30.0
1956-04-20,50.0
1956-04-21,70.0
1956-04-22,85.0
1956-04-23,105.0
1956-04-24,98.0
1956-04-25,124.0
1956-04-26,179.0
1956-04-27,179.0
1956-04-28,100.0
1956-04-29,82.0
1956-04-30,71.0
1956-05-01,79.0
1956-05-02,112.0
1956-05-03,162.0
1956-05-04,219.0
1956-05-05,243.0
1956-05-06,294.0
1956-05-07,298.0
1956-05-08,265.0
1956-05-09,259.0
1956-05-10,234.0
1956-05-11,208.0
1956-05-12,226.0
1956-05-13,239.0
1956-05-14,221.0
1956-05-15,177.0
1956-05-16,208.0
1956-05-17,278.0
1956-05-18,318.0
1956-05-19,362.0
1956-05-20,403.0
1956-05-21,421.0
1956-05-22,434.0
1956-05-23,412.0
1956-05-24,394.0
1956-05-25,415.0
1956-05-26,403.0
1956-05-27,372.0
1956-05-28,400.0
1956-05-29,465.0
1956-05-30,504.0
1956-05-31,521.0
1956-06-01,524.0
1956-06-02,518.0
1956-06-03,482.0
1956-06-04,479.0
1956-06-05,493.0
1956-06-06,424.0
1956-06-07,400.0
1956-06-08,369.0
1956-06-09,351.0
1956-06-10,336.0
1956-06-11,328.0
1956-06-12,323.0
1956-06-13,325.0
1956-06-14,337.0
1956-06-15,265.0
1956-06-16,242.0
1956-06-17,235.0
1956-06-18,242.0
1956-06-19,194.0
1956-06-20,180.0
1956-06-21,172.0
1956-06-22,164.0
1956-06-23,150.0
1956-06-24,136.0
1956-06-25,130.0
1956-06-26,124.0
1956-06-27,122.0
1956-06-28,110.0
1956-06-29,101.0
1956-06-30,103.0
1956-07-01,116.0
1956-07-02,92.0
1956-07-03,86.0
1956-07-04,73.0
1956-07-05,67.0
1956-07-06,62.0
1956-07-07,59.0
1956-07-08,56.0
1956-07-09,55.0
1956-07-10,54.0
1956-07-11,51.0
1956-07-12,51.0
1956-07-13,48.0
1956-07-14,49.0
1956-07-15,47.0
1956-07-16,43.0
1956-07-17,40.0
1956-07-18,37.0
1956-07-19,36.0
1956-07-20,34.0
1956-07-21,33.0
1956-07-22,33.0
1956-07-23,32.0
1956-07-24,31.0
1956-07-25,34.0
1956-07-26,40.0
1956-07-27,37.0
1956-07-28,33.0
1956-07-29,37.0
1956-07-30,46.0
1956-07-31,98.0
1956-08-01,82.0
1956-08-02,59.0
1956-08-03,43.0
1956-08-04,37.0
1956-08-05,33.0
1956-08-06,31.0
1956-08-07,30.0
1956-08-08,28.0
1956-08-09,26.0
1956-08-10,25.0
1956-08-11,26.0
1956-08-12,27.0
1956-08-13,28.0
1956-08-14,34.0
1956-08-15,38.0
1956-08-16,53.0
1956-08-17,43.0
1956-08-18,38.0
1956-08-19,36.0
1956-08-20,31.0
1956-08-21,29.0
1956-08-22,27.0
1956-08-23,26.0
1956-08-24,26.0
1956-08-25,26.0
1956-08-26,27.0
1956-08-27,24.0
1956-08-28,24.0
1956-08-29,28.0
1956-08-30,24.0
1956-08-31,22.0
1956-09-01,22.0
1956-09-02,20.0
1956-09-03,20.0
1956-09-04,19.0
1956-09-05,19.0
1956-09-06,19.0
1956-09-07,19.0
1956-09-08,19.0
1956-09-09,18.0
1956-09-10,18.0
1956-09-11,18.0
1956-09-12,16.0
1956-09-13,16.0
1956-09-14,16.0
1956-09-15,16.0
1956-09-16,16.0
1956-09-17,16.0
1956-09-18,16.0
1956-09-19,16.0
1956-09-20,16.0
1956-09-21,17.0
1956-09-22,16.0
1956-09-23,16.0
1956-09-24,16.0
1956-09-25,16.0
1956-09-26,15.0
1956-09-27,15.0
1956-09-28,15.0
1956-09-29,15.0
1956-09-30,16.0
1956-10-01,19.0
1956-10-02,16.0
1956-10-03,16.0
1956-10-04,15.0
1956-10-05,15.0
1956-10-06,15.0
1956-10-07,15.0
1956-10-08,15.0
1956-10-09,14.0
1956-10-10,14.0
1956-10-11,13.0
1956-10-12,13.0
1956-10-13,14.0
1956-10-14,13.0
1956-10-15,12.0
1956-10-16,12.0
1956-10-17,12.0
1956-10-18,13.0
1956-10-19,13.0
1956-10-20,12.0
1956-10-21,12.0
1956-10-22,12.0
1956-10-23,13.0
1956-10-24,13.0
1956-10-25,14.0
1956-10-26,16.0
1956-10-27,16.0
1956-10-28,15.0
1956-10-29,14.0
1956-10-30,15.0
1956-10-31,18.0
1956-11-01,18.0
1956-11-02,16.0
1956-11-03,15.0
1956-11-04,15.0
1956-11-05,15.0
1956-11-06,15.0
1956-11-07,15.0
1956-11-08,15.0
1956-11-09,15.0
1956-11-10,15.0
1956-11-11,15.0
1956-11-12,15.0
1956-11-13,15.0
1956-11-14,15.0
1956-11-15,15.0
1956-11-16,15.0
1956-11-17,15.0
1956-11-18,15.0
1956-11-19,15.0
1956-11-20,15.0
1956-11-21,15.0
1956-11-22,15.0
1956-11-23,15.0
1956-11-24,15.0
1956-11-25,15.0
1956-11-26,15.0
1956-11-27,15.0
1956-11-28,15.0
1956-11-29,15.0
1956-11-30,15.0
1956-12-01,14.0
1956-12-02,14.0
1956-12-03,14.0
1956-12-04,14.0
1956-12-05,14.0
1956-12-06,14.0
1956-12-07,14.0
1956-12-08,14.0
1956-12-09,14.0
1956-12-10,14.0
1956-12-11,14.0
1956-12-12,14.0
1956-12-13,14.0
1956-12-14,14.0
1956-12-15,14.0
1956-12-16,14.0
1956-12-17,14.0
1956-12-18,14.0
1956-12-19,14.0
1956-12-20,14.0
1956-12-21,14.0
1956-12-22,14.0
1956-12-23,14.0
1956-12-24,14.0
1956-12-25,14.0
1956-12-26,14.0
1956-12-27,14.0
1956-12-28,14.0
1956-12-29,14.0
1956-12-30,14.0
1956-12-31,14.0
1957-01-01,12.0
1957-01-02,12.0
1957-01-03,12.0
1957-01-04,12.0
1957-01-05,12.0
1957-01-06,12.0
1957-01-07,12.0
1957-01-08,12.0
1957-01-09,12.0
1957-01-10,12.0
1957-01-11,12.0
1957-01-12,12.0
1957-01-13,12.0
1957-01-14,12.0
1957-01-15,12.0
1957-01-16,12.0
1957-01-17,12.0
1957-01-18,12.0
1957-01-19,12.0
1957-01-20,12.0
1957-01-21,12.0
1957-01-22,12.0
1957-01-23,12.0
1957-01-24,12.0
1957-01-25,12.0
1957-01-26,12.0
1957-01-27,12.0
1957-01-28,12.0
1957-01-29,12.0
1957-01-30,12.0
1957-01-31,12.0
1957-02-01,11.0
1957-02-02,11.0
1957-02-03,11.0
1957-02-04,11.0
1957-02-05,11.0
1957-02-06,11.0
1957-02-07,11.0
1957-02-08,11.0
1957-02-09,11.0
1957-02-10,11.0
1957-02-11,11.0
1957-02-12,11.0
1957-02-13,11.0
1957-02-14,11.0
1957-02-15,11.0
1957-02-16,11.0
1957-02-17,11.0
1957-02-18,11.0
1957-02-19,11.0
1957-02-20,11.0
1957-02-21,11.0
1957-02-22,11.0
1957-02-23,11.0
1957-02-24,11.0
1957-02-25,11.0
1957-02-26,11.0
1957-02-27,11.0
1957-02-28,11.0
1957-03-01,12.0
1957-03-02,12.0
1957-03-03,11.0
1957-03-04,11.0
1957-03-05,11.0
1957-03-06,12.0
1957-03-07,12.0
1957-03-08,13.0
1957-03-09,13.0
1957-03-10,13.0
1957-03-11,12.0
1957-03-12,12.0
1957-03-13,10.0
1957-03-14,11.0
1957-03-15,11.0
1957-03-16,13.0
1957-03-17,12.0
1957-03-18,12.0
1957-03-19,13.0
1957-03-20,12.0
1957-03-21,13.0
1957-03-22,12.0
1957-03-23,11.0
1957-03-24,11.0
1957-03-25,12.0
1957-03-26,12.0
1957-03-27,11.0
1957-03-28,12.0
1957-03-29,11.0
1957-03-30,11.0
1957-03-31,12.0
1957-04-01,12.0
1957-04-02,12.0
1957-04-03,12.0
1957-04-04,12.0
1957-04-05,11.0
1957-04-06,12.0
1957-04-07,12.0
1957-04-08,11.0
1957-04-09,12.0
1957-04-10,15.0
1957-04-11,18.0
1957-04-12,18.0
1957-04-13,22.0
1957-04-14,30.0
1957-04-15,35.0
1957-04-16,45.0
1957-04-17,56.0
1957-04-18,66.0
1957-04-19,51.0
1957-04-20,39.0
1957-04-21,48.0
1957-04-22,60.0
1957-04-23,51.0
1957-04-24,42.0
1957-04-25,36.0
1957-04-26,31.0
1957-04-27,30.0
1957-04-28,27.0
1957-04-29,26.0
1957-04-30,28.0
1957-05-01,42.0
1957-05-02,70.0
1957-05-03,140.0
1957-05-04,206.0
1957-05-05,210.0
1957-05-06,222.0
1957-05-07,235.0
1957-05-08,252.0
1957-05-09,285.0
1957-05-10,278.0
1957-05-11,258.0
1957-05-12,198.0
1957-05-13,154.0
1957-05-14,154.0
1957-05-15,130.0
1957-05-16,106.0
1957-05-17,101.0
1957-05-18,128.0
1957-05-19,146.0
1957-05-20,158.0
1957-05-21,116.0
1957-05-22,114.0
1957-05-23,124.0
1957-05-24,126.0
1957-05-25,142.0
1957-05-26,170.0
1957-05-27,190.0
1957-05-28,222.0
1957-05-29,260.0
1957-05-30,288.0
1957-05-31,308.0
1957-06-01,313.0
1957-06-02,409.0
1957-06-03,522.0
1957-06-04,574.0
1957-06-05,686.0
1957-06-06,660.0
1957-06-07,619.0
1957-06-08,660.0
1957-06-09,714.0
1957-06-10,696.0
1957-06-11,595.0
1957-06-12,599.0
1957-06-13,700.0
1957-06-14,732.0
1957-06-15,655.0
1957-06-16,607.0
1957-06-17,490.0
1957-06-18,528.0
1957-06-19,682.0
1957-06-20,895.0
1957-06-21,875.0
1957-06-22,736.0
1957-06-23,820.0
1957-06-24,988.0
1957-06-25,1170.0
1957-06-26,1270.0
1957-06-27,1230.0
1957-06-28,1340.0
1957-06-29,1200.0
1957-06-30,1200.0
1957-07-01,1160.0
1957-07-02,1040.0
1957-07-03,970.0
1957-07-04,1040.0
1957-07-05,994.0
1957-07-06,915.0
1957-07-07,875.0
1957-07-08,865.0
1957-07-09,946.0
1957-07-10,855.0
1957-07-11,754.0
1957-07-12,718.0
1957-07-13,678.0
1957-07-14,631.0
1957-07-15,591.0
1957-07-16,518.0
1957-07-17,490.0
1957-07-18,493.0
1957-07-19,524.0
1957-07-20,479.0
1957-07-21,427.0
1957-07-22,403.0
1957-07-23,418.0
1957-07-24,364.0
1957-07-25,372.0
1957-07-26,403.0
1957-07-27,389.0
1957-07-28,362.0
1957-07-29,367.0
1957-07-30,359.0
1957-07-31,318.0
1957-08-01,301.0
1957-08-02,274.0
1957-08-03,245.0
1957-08-04,239.0
1957-08-05,228.0
1957-08-06,256.0
1957-08-07,230.0
1957-08-08,215.0
1957-08-09,190.0
1957-08-10,175.0
1957-08-11,177.0
1957-08-12,164.0
1957-08-13,182.0
1957-08-14,150.0
1957-08-15,218.0
1957-08-16,218.0
1957-08-17,124.0
1957-08-18,112.0
1957-08-19,98.0
1957-08-20,124.0
1957-08-21,137.0
1957-08-22,113.0
1957-08-23,97.0
1957-08-24,87.0
1957-08-25,91.0
1957-08-26,112.0
1957-08-27,92.0
1957-08-28,87.0
1957-08-29,84.0
1957-08-30,133.0
1957-08-31,154.0
1957-09-01,113.0
1957-09-02,95.0
1957-09-03,88.0
1957-09-04,82.0
1957-09-05,77.0
1957-09-06,73.0
1957-09-07,70.0
1957-09-08,68.0
1957-09-09,65.0
1957-09-10,59.0
1957-09-11,54.0
1957-09-12,52.0
1957-09-13,51.0
1957-09-14,49.0
1957-09-15,47.0
1957-09-16,46.0
1957-09-17,44.0
1957-09-18,42.0
1957-09-19,41.0
1957-09-20,42.0
1957-09-21,40.0
1957-09-22,36.0
1957-09-23,36.0
1957-09-24,35.0
1957-09-25,35.0
1957-09-26,36.0
1957-09-27,33.0
1957-09-28,32.0
1957-09-29,32.0
1957-09-30,32.0
1957-10-01,32.0
1957-10-02,32.0
1957-10-03,32.0
1957-10-04,32.0
1957-10-05,30.0
1957-10-06,29.0
1957-10-07,29.0
1957-10-08,28.0
1957-10-09,28.0
1957-10-10,27.0
1957-10-11,27.0
1957-10-12,28.0
1957-10-13,35.0
1957-10-14,38.0
1957-10-15,36.0
1957-10-16,35.0
1957-10-17,33.0
1957-10-18,33.0
1957-10-19,33.0
1957-10-20,33.0
1957-10-21,32.0
1957-10-22,32.0
1957-10-23,32.0
1957-10-24,32.0
1957-10-25,30.0
1957-10-26,30.0
1957-10-27,29.0
1957-10-28,29.0
1957-10-29,29.0
1957-10-30,29.0
1957-10-31,29.0
1957-11-01,30.0
1957-11-02,29.0
1957-11-03,28.0
1957-11-04,28.0
1957-11-05,29.0
1957-11-06,28.0
1957-11-07,29.0
1957-11-08,22.0
1957-11-09,24.0
1957-11-10,24.0
1957-11-11,24.0
1957-11-12,24.0
1957-11-13,26.0
1957-11-14,26.0
1957-11-15,24.0
1957-11-16,24.0
1957-11-17,24.0
1957-11-18,24.0
1957-11-19,24.0
1957-11-20,24.0
1957-11-21,24.0
1957-11-22,22.0
1957-11-23,24.0
1957-11-24,26.0
1957-11-25,28.0
1957-11-26,26.0
1957-11-27,24.0
1957-11-28,24.0
1957-11-29,24.0
1957-11-30,24.0
1957-12-01,24.0
1957-12-02,24.0
1957-12-03,24.0
1957-12-04,24.0
1957-12-05,24.0
1957-12-06,26.0
1957-12-07,26.0
1957-12-08,26.0
1957-12-09,26.0
1957-12-10,24.0
1957-12-11,24.0
1957-12-12,24.0
1957-12-13,24.0
1957-12-14,23.0
1957-12-15,22.0
1957-12-16,22.0
1957-12-17,22.0
1957-12-18,21.0
1957-12-19,20.0
1957-12-20,22.0
1957-12-21,21.0
1957-12-22,20.0
1957-12-23,20.0
1957-12-24,19.0
1957-12-25,18.0
1957-12-26,18.0
1957-12-27,18.0
1957-12-28,20.0
1957-12-29,18.0
1957-12-30,18.0
1957-12-31,17.0
1958-01-01,16.0
1958-01-02,16.0
1958-01-03,16.0
1958-01-04,16.0
1958-01-05,18.0
1958-01-06,19.0
1958-01-07,20.0
1958-01-08,20.0
1958-01-09,20.0
1958-01-10,20.0
1958-01-11,20.0
1958-01-12,20.0
1958-01-13,20.0
1958-01-14,19.0
1958-01-15,18.0
1958-01-16,18.0
1958-01-17,18.0
1958-01-18,18.0
1958-01-19,18.0
1958-01-20,17.0
1958-01-21,16.0
1958-01-22,14.0
1958-01-23,14.0
1958-01-24,16.0
1958-01-25,16.0
1958-01-26,16.0
1958-01-27,16.0
1958-01-28,16.0
1958-01-29,16.0
1958-01-30,16.0
1958-01-31,15.0
1958-02-01,14.0
1958-02-02,14.0
1958-02-03,14.0
1958-02-04,16.0
1958-02-05,16.0
1958-02-06,16.0
1958-02-07,15.0
1958-02-08,16.0
1958-02-09,14.0
1958-02-10,16.0
1958-02-11,16.0
1958-02-12,16.0
1958-02-13,15.0
1958-02-14,16.0
1958-02-15,15.0
1958-02-16,16.0
1958-02-17,14.0
1958-02-18,15.0
1958-02-19,16.0
1958-02-20,16.0
1958-02-21,14.0
1958-02-22,14.0
1958-02-23,14.0
1958-02-24,14.0
1958-02-25,14.0
1958-02-26,14.0
1958-02-27,15.0
1958-02-28,14.0
1958-03-01,14.0
1958-03-02,14.0
1958-03-03,14.0
1958-03-04,14.0
1958-03-05,14.0
1958-03-06,14.0
1958-03-07,16.0
1958-03-08,16.0
1958-03-09,16.0
1958-03-10,16.0
1958-03-11,16.0
1958-03-12,16.0
1958-03-13,16.0
1958-03-14,16.0
1958-03-15,15.0
1958-03-16,15.0
1958-03-17,16.0
1958-03-18,16.0
1958-03-19,16.0
1958-03-20,15.0
1958-03-21,15.0
1958-03-22,14.0
1958-03-23,15.0
1958-03-24,14.0
1958-03-25,14.0
1958-03-26,14.0
1958-03-27,13.0
1958-03-28,14.0
1958-03-29,14.0
1958-03-30,14.0
1958-03-31,14.0
1958-04-01,14.0
1958-04-02,14.0
1958-04-03,14.0
1958-04-04,12.0
1958-04-05,14.0
1958-04-06,16.0
1958-04-07,16.0
1958-04-08,16.0
1958-04-09,15.0
1958-04-10,14.0
1958-04-11,13.0
1958-04-12,13.0
1958-04-13,13.0
1958-04-14,14.0
1958-04-15,18.0
1958-04-16,26.0
1958-04-17,34.0
1958-04-18,46.0
1958-04-19,60.0
1958-04-20,70.0
1958-04-21,73.0
1958-04-22,79.0
1958-04-23,78.0
1958-04-24,68.0
1958-04-25,65.0
1958-04-26,63.0
1958-04-27,64.0
1958-04-28,59.0
1958-04-29,54.0
1958-04-30,50.0
1958-05-01,56.0
1958-05-02,61.0
1958-05-03,73.0
1958-05-04,115.0
1958-05-05,162.0
1958-05-06,199.0
1958-05-07,234.0
1958-05-08,270.0
1958-05-09,298.0
1958-05-10,267.0
1958-05-11,265.0
1958-05-12,289.0
1958-05-13,301.0
1958-05-14,298.0
1958-05-15,294.0
1958-05-16,323.0
1958-05-17,364.0
1958-05-18,412.0
1958-05-19,465.0
1958-05-20,514.0
1958-05-21,575.0
1958-05-22,623.0
1958-05-23,647.0
1958-05-24,686.0
1958-05-25,740.0
1958-05-26,732.0
1958-05-27,800.0
1958-05-28,825.0
1958-05-29,830.0
1958-05-30,776.0
1958-05-31,660.0
1958-06-01,673.0
1958-06-02,727.0
1958-06-03,714.0
1958-06-04,714.0
1958-06-05,768.0
1958-06-06,930.0
1958-06-07,982.0
1958-06-08,1080.0
1958-06-09,970.0
1958-06-10,820.0
1958-06-11,722.0
1958-06-12,623.0
1958-06-13,559.0
1958-06-14,567.0
1958-06-15,579.0
1958-06-16,583.0
1958-06-17,591.0
1958-06-18,603.0
1958-06-19,595.0
1958-06-20,607.0
1958-06-21,603.0
1958-06-22,579.0
1958-06-23,555.0
1958-06-24,595.0
1958-06-25,500.0
1958-06-26,421.0
1958-06-27,392.0
1958-06-28,386.0
1958-06-29,362.0
1958-06-30,336.0
1958-07-01,313.0
1958-07-02,296.0
1958-07-03,259.0
1958-07-04,241.0
1958-07-05,219.0
1958-07-06,204.0
1958-07-07,195.0
1958-07-08,199.0
1958-07-09,208.0
1958-07-10,199.0
1958-07-11,190.0
1958-07-12,160.0
1958-07-13,156.0
1958-07-14,144.0
1958-07-15,137.0
1958-07-16,133.0
1958-07-17,122.0
1958-07-18,121.0
1958-07-19,110.0
1958-07-20,97.0
1958-07-21,89.0
1958-07-22,86.0
1958-07-23,80.0
1958-07-24,75.0
1958-07-25,72.0
1958-07-26,70.0
1958-07-27,67.0
1958-07-28,64.0
1958-07-29,62.0
1958-07-30,61.0
1958-07-31,58.0
1958-08-01,56.0
1958-08-02,54.0
1958-08-03,53.0
1958-08-04,59.0
1958-08-05,63.0
1958-08-06,59.0
1958-08-07,52.0
1958-08-08,50.0
1958-08-09,56.0
1958-08-10,55.0
1958-08-11,51.0
1958-08-12,48.0
1958-08-13,46.0
1958-08-14,46.0
1958-08-15,45.0
1958-08-16,73.0
1958-08-17,80.0
1958-08-18,63.0
1958-08-19,58.0
1958-08-20,47.0
1958-08-21,50.0
1958-08-22,49.0
1958-08-23,48.0
1958-08-24,41.0
1958-08-25,39.0
1958-08-26,37.0
1958-08-27,36.0
1958-08-28,36.0
1958-08-29,36.0
1958-08-30,34.0
1958-08-31,33.0
1958-09-01,32.0
1958-09-02,31.0
1958-09-03,31.0
1958-09-04,37.0
1958-09-05,35.0
1958-09-06,33.0
1958-09-07,31.0
1958-09-08,32.0
1958-09-09,30.0
1958-09-10,32.0
1958-09-11,32.0
1958-09-12,32.0
1958-09-13,52.0
1958-09-14,46.0
1958-09-15,38.0
1958-09-16,34.0
1958-09-17,32.0
1958-09-18,38.0
1958-09-19,36.0
1958-09-20,33.0
1958-09-21,32.0
1958-09-22,31.0
1958-09-23,32.0
1958-09-24,35.0
1958-09-25,38.0
1958-09-26,34.0
1958-09-27,32.0
1958-09-28,32.0
1958-09-29,34.0
1958-09-30,33.0
1958-10-01,31.0
1958-10-02,33.0
1958-10-03,33.0
1958-10-04,32.0
1958-10-05,32.0
1958-10-06,33.0
1958-10-07,32.0
1958-10-08,30.0
1958-10-09,30.0
1958-10-10,29.0
1958-10-11,29.0
1958-10-12,29.0
1958-10-13,28.0
1958-10-14,28.0
1958-10-15,27.0
1958-10-16,27.0
1958-10-17,26.0
1958-10-18,26.0
1958-10-19,25.0
1958-10-20,25.0
1958-10-21,22.0
1958-10-22,22.0
1958-10-23,20.0
1958-10-24,24.0
1958-10-25,25.0
1958-10-26,26.0
1958-10-27,26.0
1958-10-28,25.0
1958-10-29,26.0
1958-10-30,26.0
1958-10-31,26.0
1958-11-01,20.0
1958-11-02,22.0
1958-11-03,22.0
1958-11-04,24.0
1958-11-05,24.0
1958-11-06,22.0
1958-11-07,22.0
1958-11-08,20.0
1958-11-09,25.0
1958-11-10,22.0
1958-11-11,22.0
1958-11-12,25.0
1958-11-13,24.0
1958-11-14,20.0
1958-11-15,24.0
1958-11-16,22.0
1958-11-17,20.0
1958-11-18,20.0
1958-11-19,20.0
1958-11-20,24.0
1958-11-21,26.0
1958-11-22,26.0
1958-11-23,26.0
1958-11-24,26.0
1958-11-25,24.0
1958-11-26,24.0
1958-11-27,22.0
1958-11-28,22.0
1958-11-29,20.0
1958-11-30,24.0
1958-12-01,26.0
1958-12-02,26.0
1958-12-03,28.0
1958-12-04,28.0
1958-12-05,26.0
1958-12-06,26.0
1958-12-07,22.0
1958-12-08,24.0
1958-12-09,23.0
1958-12-10,22.0
1958-12-11,22.0
1958-12-12,22.0
1958-12-13,21.0
1958-12-14,19.0
1958-12-15,17.0
1958-12-16,17.0
1958-12-17,18.0
1958-12-18,18.0
1958-12-19,18.0
1958-12-20,18.0
1958-12-21,18.0
1958-12-22,18.0
1958-12-23,19.0
1958-12-24,18.0
1958-12-25,17.0
1958-12-26,17.0
1958-12-27,18.0
1958-12-28,18.0
1958-12-29,17.0
1958-12-30,16.0
1958-12-31,17.0
1959-01-01,18.0
1959-01-02,19.0
1959-01-03,20.0
1959-01-04,18.0
1959-01-05,17.0
1959-01-06,17.0
1959-01-07,18.0
1959-01-08,19.0
1959-01-09,20.0
1959-01-10,20.0
1959-01-11,20.0
1959-01-12,19.0
1959-01-13,20.0
1959-01-14,20.0
1959-01-15,19.0
1959-01-16,19.0